Regional Weather Roundup
Issued by NWS

Home | Current Version | Previous Version | Text Only | Print | Product List | Glossary On
Versions: 1 2 3 4 5 6 7 8 9 10 11 12 13 14 15 16 17 18 19 20 21 22 23 24 25 26 27
000
ASUS45 KREV 212110
RWRNV
NEVADA REGIONAL WEATHER ROUNDUP
NATIONAL WEATHER SERVICE RENO NV
200 PM PDT MON AUG 21 2017

NOTE: "FAIR" INDICATES FEW OR NO CLOUDS BELOW 12,000 FEET WITH NO
SIGNIFICANT WEATHER AND/OR OBSTRUCTIONS TO VISIBILITY.

NVZ001-003-004-212200-
WESTERN NEVADA

CITY           SKY/WX    TMP DP  RH WIND       PRES   REMARKS
RENO           MOSUNNY   89  36  15 SE7       30.12F
CARSON CITY    FAIR      86  32  14 NW3       30.15F
MINDEN         FAIR      86  39  19 W6        30.14F
FALLON         MOSUNNY   91  28  10 VRB6      30.09F
LOVELOCK       SUNNY     89  36  15 SW9       30.09F
HAWTHORNE      MOSUNNY   90  36  14 CALM      30.09F
$$

NVZ002-CAZ072-073-212200-
NORTHERN AND CENTRAL SIERRA

CITY           SKY/WX    TMP DP  RH WIND       PRES   REMARKS
S. LAKE TAHOE  MOSUNNY   79  45  29 CALM      30.25S
SQUAW VLY 8000   N/A     70  39  32 SE3         N/A
SUSANVILLE     LGT RAIN  90  32  12 E7        30.12F
MAMMOTH LAKES  CLOUDY    67  35  30 SE18      30.36S
BRIDGEPORT     FAIR      80  32  17 E8G17     30.25F
$$

NVZ030-031-036-212200-
NORTHERN NEVADA

CITY           SKY/WX    TMP DP  RH WIND       PRES   REMARKS
ELKO           SUNNY     89  28  11 MISG      30.17F
WINNEMUCCA     SUNNY     92  29  10 N5        30.12F
WENDOVER       SUNNY     89  34  14 SE10      30.13F
$$

NVZ035-037-212200-
CENTRAL NEVADA

CITY           SKY/WX    TMP DP  RH WIND       PRES   REMARKS
ELY            SUNNY     86  33  15 VRB7      30.23F
EUREKA           N/A     86  34  15 VRB6      30.22F
$$

NVZ013-014-212200-
SOUTH CENTRAL NEVADA

CITY           SKY/WX    TMP DP  RH WIND       PRES   REMARKS
TONOPAH        MOSUNNY   81  42  25 VRB6G22   30.25F
$$

NVZ017-020-022-212200-
SOUTHERN NEVADA

CITY           SKY/WX    TMP DP  RH WIND       PRES   REMARKS
LAS VEGAS      PTSUNNY   89  55  31 VRB5      30.07F
N. LAS VEGAS   PTSUNNY   86  55  34 VRB5      30.06F
NELLIS AFB     PTSUNNY   87  54  32 S3        30.04F
HENDERSON      MOSUNNY   87  55  33 N6        30.09F
MERCURY        PTSUNNY   85  52  32 E16G25    30.13F
$$




USA.gov is the U.S. government's official web portal to all federal, state and local government web resources and services.